Regional Weather Roundup
Issued by NWS Green Bay, WI

Home | Current Version | Previous Version | Text Only | Print | Product List | Glossary On
Versions: 1 2 3 4 5 6 7 8 9 10 11 12 13 14 15 16 17 18 19 20 21 22 23 24 25 26 27 28 29 30 31 32 33 34 35 36 37 38 39 40 41 42 43 44 45 46 47 48 49 50
000
ASUS43 KGRB 010611
RWRGRB

NORTH-CENTRAL AND NORTHEAST WISCONSIN REGIONAL WEATHER ROUNDUP
NATIONAL WEATHER SERVICE GREEN BAY WI
100 AM CDT WED JUL 01 2015

WIZ005-009-010>012-018-019-010700-
NORTH CENTRAL WISCONSIN

CITY           SKY/WX    TMP DP  RH WIND       PRES   REMARKS
IRONWOOD       CLEAR     43  41  93 CALM      29.97S
MANITOWISH WTR CLEAR     41  41 100 CALM      29.99S
ARBOR VITAE    CLEAR     42  40  91 CALM      29.99S
EAGLE RIVER    PTCLDY    41  41 100 CALM      29.98S FOG
LAND O LAKES   CLEAR     39  39 100 CALM      30.00S
RHINELANDER    CLEAR     42  41  96 CALM      29.98F FOG
PHILLIPS       PTCLDY    43  42  99 CALM      29.99S
ANTIGO         CLEAR     44  44  99 CALM      29.97F
TOMAHAWK       CLEAR     37  36  96 CALM      29.99R
MERRILL        CLEAR     44  44 100 CALM      29.98F
$$

WIZ013-073-010700-
NORTHEAST WISCONSIN

CITY           SKY/WX    TMP DP  RH WIND       PRES   REMARKS
IRON MOUNTAIN  CLEAR     46  41  82 NW7       29.94
MARINETTE      CLOUDY    52  43  71 N9        29.93S
OCONTO         CLOUDY    51  49  93 NW5       29.94R
$$

WIZ017-030-035>037-045-010700-
CENTRAL WISCONSIN

CITY           SKY/WX    TMP DP  RH WIND       PRES   REMARKS
MEDFORD        CLEAR     46  44  93 N3        29.98S
WAUSAU         CLEAR     51  45  79 CALM      29.96
MOSINEE        CLEAR     50  46  87 NE7       29.98F
MARSHFIELD     CLEAR     53  45  74 NE7       29.97
WISC RAPIDS    CLEAR     54  45  71 NE7       29.97
STEVENS POINT  CLEAR     47  45  90 NE3       29.97F
WAUPACA        CLEAR     54  47  79 N3        29.96S
SHAWANO        CLEAR     51  46  83 NW6       29.96S
CLINTONVILLE   CLEAR     50  45  81 NW3       29.96S
$$

WIZ038-039-048-051-010700-
FOX VALLEY

CITY           SKY/WX    TMP DP  RH WIND       PRES   REMARKS
NWS GREEN BAY  CLEAR     51  48  89 NW7       29.94
APPLETON       CLEAR     50  43  76 N8        29.95F
OSHKOSH        CLEAR     55  47  74 N9        29.94
FOND DU LAC    CLOUDY    58  50  75 N10       29.94
$$

WIZ022-050-052-010700-
EAST CENTRAL WISCONSIN

CITY           SKY/WX    TMP DP  RH WIND       PRES   REMARKS
STURGEON BAY   CLOUDY    54  43  66 N10       29.95S
MANITOWOC      CLOUDY    56  49  77 MISG      29.93F
SHEBOYGAN      CLOUDY    54  52  93 CALM      29.93S
$$

LMZ563-521-522-541>543-010700-
LAKESHORE

STATION/POSITION TIME  TEMP    WIND        PRES    VSBY  WAVE
                       AIR SEA DIR/SP/G                  HT/PER
                 (UTC) (F)     (DEG/KT/KT) (MB)    (MI)  (FT/S)
SHEBOYGAN LKSHOR 0600   55     310/  6/  8 1013.7S
KEWAUNEE LKSHORE 0500   57     330/  3/  9 1012.8F
ALGOMA MARINA    0540          320/  9/ 11   N/A
NORTHPORT PIER   0500   53     340/ 15/ 17 1013.2S
N MID LAKE BUOY  0550   46 41  300/ 12/ 12 1012.7S         2/ 4
S GREEN BAY BUOY 0500   58 69  340/ 14/ 17 1014.8
SISTER BAY LKSHO 0544   53     360/ 14/ 15   N/A
CHAMBERS ISLAND  0500   55     310/ 14/ 17 1013.5F
MENOMINEE LKSHOR 0500   55     330/ 11/ 12 1014.2F
$$



USA.gov is the U.S. government's official web portal to all federal, state and local government web resources and services.